Regional Weather Roundup
Issued by NWS Northern Indiana

Home | Current Version | Previous Version | Graphics & Text | Print | Product List | Glossary On
Versions: 1 2 3 4 5 6 7 8 9 10 11 12 13 14 15 16 17 18 19 20 21 22 23 24 25 26 27 28 29 30 31 32 33 34 35 36 37 38 39 40 41 42 43 44 45 46 47 48 49 50
000
ASUS43 KIWX 300210
RWRIWX

KIWX WEATHER ROUNDUP
NATIONAL WEATHER SERVICE NORTHERN INDIANA
1000 PM EDT WED JUL 29 2015

NOTE: "FAIR" INDICATES FEW OR NO CLOUDS BELOW 12,000 FEET WITH NO
SIGNIFICANT WEATHER AND/OR OBSTRUCTIONS TO VISIBILITY.

* THESE STATIONS ARE NOT UNDER NWS QUALITY CONTROL. THEY ALSO MAY NOT
  REPORT WEATHER SUCH AS PRECIPITATION OR FOG.

INZ001>027-300300-
NORTHERN INDIANA

CITY           SKY/WX    TMP DP  RH WIND       PRES   REMARKS
GARY*          PTCLDY    77  57  50 W14       30.00R
VALPARAISO     CLEAR     71  56  58 W9        30.01R
MICHIGAN CITY* CLEAR     73  59  60 W6        30.00R
LAPORTE*       CLEAR     72  61  70 W3        30.00R
KNOX*          CLEAR     70  59  68 W6        29.99R
SOUTH BEND     CLEAR     70  60  70 W7        29.99R
GOSHEN         LGT RAIN  69  58  67 CALM      29.98R
MONTICELLO*    PTCLDY    72  59  64 W3        30.00R
LOGANSPORT*    PTCLDY    73  52  46 NW5       30.01R
ROCHESTER*     CLEAR     75  66  73 CALM      30.00R
WARSAW*        CLEAR     70  55  60 CALM      29.99S
ANGOLA*        CLEAR     72  64  78 CALM      29.98R
FORT WAYNE     PTCLDY    72  64  76 W3        29.98R
HUNTINGTON*    PTCLDY    76  60  58 CALM      29.98R
PERU/GRISSOM   PTCLDY    76  61  60 VRB7      30.00R
MARION*        MOCLDY    78  68  70 N5        30.00R

$$
INZ028>050-300300-
CENTRAL INDIANA

CITY           SKY/WX    TMP DP  RH WIND       PRES   REMARKS
LAFAYETTE      PTCLDY    71  60  68 W3        30.01R
KOKOMO*        PTCLDY    75  63  64 NW9       30.00R
MUNCIE*        MOCLDY    78  75  90 CALM      29.98R
INDIANAPOLIS   MOCLDY    78  65  63 NW13      30.00R

$$
MIZ043>046-050>051-056>058-064>065-071>073-077>080-300300-
SOUTHWEST LOWER MICHIGAN

CITY           SKY/WX    TMP DP  RH WIND       PRES   REMARKS
BATTLE CREEK   CLEAR     71  58  63 W9        29.97R
BENTON HARBOR  CLEAR     75  61  61 W14       29.97R
COLDWATER*     CLEAR     69  57  67 SW3       29.97R
HILLSDALE*     CLEAR     70  59  67 W5        29.98R
HOLLAND        CLEAR     74  61  63 W8        29.96R
GRAND RAPIDS   PTCLDY    74  56  53 W9        29.94R
KALAMAZOO      CLEAR     73  57  57 W6        29.97R
STURGIS*       CLEAR     72  61  68 CALM      29.98R
THREE RIVERS*  FAIR      69  59  70 W3        29.97R

$$
OHZ001>008-015>018-024>025-300300-
NORTHWEST OHIO

CITY           SKY/WX    TMP DP  RH WIND       PRES   REMARKS
WAUSEON*       FAIR      72  64  78 NW8       29.95R
DEFIANCE       CLEAR     75  61  61 NW6       29.96R
FINDLAY        PTCLDY    73  71  93 SW3       29.93R
TOLEDO EXPRESS CLEAR     76  74  93 W5        29.93R
TOLEDO METCALF PTCLDY    77  72  84 SW6       29.92R
LIMA           MOCLDY    76  71  85 CALM      29.96R

$$
AND FOR LAKE MICHIGAN COASTAL AND OPEN LAKE BUOY OBSERVATIONS

STATION/POSITION TEMP    WIND        PRES    VSBY  WAVE
                 AIR SEA DIR/SP/G                  HT/PER
                 (F)     (DEG/KT/KT) (MB)    (MI)  (FT/S)
CALUMET HARBOR    81                   N/A
MICHIGAN CITY     78     250/ 10/ 12   N/A
BURNS HARBOR      79     280/ 14/ 16 1015.2R
SAINT JOSEPH      76     250/ 10/ 12 1015.6S
4 MI NW BRIDGMAN  77 75  310/ 14/ 16   N/A           2/ 3
MICHIGAN CITY     78 75  290/ 12/ 16   N/A           1/ 3

$$
&&


USA.gov is the U.S. government's official web portal to all federal, state and local government web resources and services.